GW6549 Weather Reports


time (UTC)temp
F
wind
direction
speed
knots
gust
knots
rain 1hr
in
rain 24hr
in
rain mn
in
humidity
%
barometer
mb
20260503072021 57 36 3.5 6.1 0.00 0.00 0.00 55 1014.2
20260503071017 56 92 0.9 2.6 0.00 0.00 0.00 56 1014.2
20260503055030 56 26 2.6 4.3 0.00 0.00 0.00 57 1014.0
20260503054030 56 99 0.9 2.6 0.00 0.00 0.00 58 1014.0
20260503053030 55 76 1.7 2.6 0.00 0.00 0.00 55 1014.1
20260503052029 58 28 2.6 4.3 0.00 0.00 0.00 64 1014.2
20260503051028 61 94 0.9 2.6 0.00 0.00 0.00 62 1014.1
20260503050026 65 88 1.7 4.3 0.00 0.00 0.00 62 1014.2
20260503045025 67 209 0.9 1.7 0.00 0.00 0.00 36 1014.2
20260503044026 67 281 2.6 2.6 0.00 0.00 0.00 32 1014.0
20260503043026 67 298 3.5 4.3 0.00 0.00 0.00 32 1014.0
20260503042030 67 291 2.6 4.3 0.00 0.00 0.00 33 1013.9
20260503041017 67 287 3.5 4.3 0.00 0.00 0.00 33 1013.9
20260503040022 66 292 3.5 5.2 0.00 0.00 0.00 32 1013.9
20260503035024 67 286 2.6 5.2 0.00 0.00 0.00 32 1013.9
20260503034023 67 289 2.6 4.3 0.00 0.00 0.00 33 1013.7
20260503033026 68 283 2.6 4.3 0.00 0.00 0.00 33 1013.6
20260503032025 68 285 3.5 5.2 0.00 0.00 0.00 31 1013.6
20260503031105 69 284 3.5 5.2 0.00 0.00 0.00 31 1013.3
20260503030024 70 299 2.6 4.3 0.00 0.00 0.00 29 1013.3
20260503025023 71 301 2.6 2.6 0.00 0.00 0.00 29 1013.2
20260503024024 72 272 1.7 2.6 0.00 0.00 0.00 30 1013.4
20260503023025 73 271 2.6 5.2 0.00 0.00 0.00 31 1013.2
20260503022023 73 229 1.7 1.7 0.00 0.00 0.00 30 1013.2
20260503021024 74 226 0.9 1.7 0.00 0.00 0.00 30 1013.2
20260503020021 74 222 0.9 1.7 0.00 0.00 0.00 29 1013.2
20260503015024 74 0.0 0.0 0.00 0.00 0.00 28 1013.2
20260503014022 74 212 0.0 0.9 0.00 0.00 0.00 31 1013.2
20260503013022 74 195 0.9 1.7 0.00 0.00 0.00 32 1013.2
20260503012024 74 117 0.9 0.9 0.00 0.00 0.00 31 1013.2
20260503011025 74 19 0.9 1.7 0.00 0.00 0.00 34 1013.2
20260503010044 75 38 1.7 2.6 0.00 0.00 0.00 34 1013.3
20260503005023 75 20 1.7 2.6 0.00 0.00 0.00 32 1013.6
20260503004025 76 29 2.6 5.2 0.00 0.00 0.00 32 1013.5
20260503003046 76 225 0.9 1.7 0.00 0.00 0.00 31 1013.6
20260503002045 76 242 1.7 2.6 0.00 0.00 0.00 28 1013.6
20260503001026 75 205 0.9 2.6 0.00 0.00 0.00 29 1013.6
20260503000027 75 322 1.7 7.0 0.00 0.00 0.00 32 1013.6
20260502235027 76 318 2.6 6.1 0.00 0.00 0.00 30 1013.6
20260502234027 76 7 2.6 6.1 0.00 0.00 0.00 30 1013.9
20260502233026 76 311 1.7 5.2 0.00 0.00 0.00 32 1013.9
20260502232027 76 99 1.7 6.1 0.00 0.00 0.00 30 1013.9
20260502231047 76 74 2.6 5.2 0.00 0.00 0.00 31 1013.9
20260502230028 76 83 0.9 6.1 0.00 0.00 0.00 30 1013.9
20260502225045 76 90 1.7 4.3 0.00 0.00 0.00 30 1014.3
20260502224024 76 85 1.7 6.1 0.00 0.00 0.00 28 1014.3
20260502223023 76 99 1.7 4.3 0.00 0.00 0.00 27 1014.6
20260502222024 76 48 2.6 8.7 0.00 0.00 0.00 24 1014.5
20260502221103 76 5 4.3 7.0 0.00 0.00 0.00 26 1014.7
20260502220023 76 34 2.6 4.3 0.00 0.00 0.00 23 1014.7
20260502215041 76 132 0.9 2.6 0.00 0.00 0.00 23 1014.7
20260502214031 76 23 3.5 7.0 0.00 0.00 0.00 24 1014.8
20260502213015 76 28 3.5 7.0 0.00 0.00 0.00 24 1015.0
20260502212030 76 22 3.5 7.0 0.00 0.00 0.00 25 1015.0
20260502211015 76 27 2.6 6.1 0.00 0.00 0.00 25 1015.0
20260502210030 76 29 2.6 5.2 0.00 0.00 0.00 27 1015.0
20260502205016 76 58 1.7 5.2 0.00 0.00 0.00 28 1015.0
20260502204016 75 166 1.7 4.3 0.00 0.00 0.00 31 1015.1
20260502203050 74 237 0.9 2.6 0.00 0.00 0.00 24 1015.2
20260502202051 74 24 1.7 6.1 0.00 0.00 0.00 28 1015.4
20260502201030 75 358 3.5 7.0 0.00 0.00 0.00 30 1015.4
20260502200030 76 8 1.7 5.2 0.00 0.00 0.00 26 1015.4
20260502195027 76 98 0.9 5.2 0.00 0.00 0.00 27 1015.4
20260502194028 75 47 2.6 5.2 0.00 0.00 0.00 22 1015.4
20260502193029 74 26 3.5 7.0 0.00 0.00 0.00 25 1015.5
20260502192027 74 60 1.7 6.1 0.00 0.00 0.00 24 1015.5
20260502191027 74 91 1.7 5.2 0.00 0.00 0.00 28 1015.8
20260502190026 73 68 1.7 4.3 0.00 0.00 0.00 27 1015.8
20260502185027 73 30 1.7 6.1 0.00 0.00 0.00 29 1015.8
20260502184048 73 39 2.6 5.2 0.00 0.00 0.00 29 1015.8
20260502183027 72 16 3.5 6.1 0.00 0.00 0.00 33 1015.8
20260502182108 72 51 2.6 5.2 0.00 0.00 0.00 35 1015.9
20260502181027 71 31 2.6 6.1 0.00 0.00 0.00 35 1015.8
20260502164026 65 72 1.7 6.1 0.00 0.00 0.00 47 1016.1
20260502163026 65 42 3.5 6.1 0.00 0.00 0.00 46 1016.1
20260502162024 64 39 3.5 7.8 0.00 0.00 0.00 47 1015.8
20260502161024 64 74 2.6 7.0 0.00 0.00 0.00 49 1015.8
20260502152041 58 42 3.5 7.0 0.00 0.00 0.00 56 1015.8
20260502151042 57 58 2.6 7.0 0.00 0.00 0.00 59 1015.8
20260502123024 50 26 7.0 8.7 0.00 0.00 0.00 68 1015.4
20260502122025 50 20 7.0 9.6 0.00 0.00 0.00 67 1015.4
20260502121025 51 23 8.7 11.3 0.00 0.00 0.00 66 1015.4
20260502115025 53 25 6.1 7.8 0.00 0.00 0.00 64 1015.4
20260502114025 54 23 6.1 8.7 0.00 0.00 0.00 60 1015.4
20260502113024 55 26 6.1 8.7 0.00 0.00 0.00 58 1015.4
20260502112025 55 6 6.1 7.8 0.00 0.00 0.00 51 1015.4
20260502111025 56 16 4.3 7.0 0.00 0.00 0.00 54 1015.4
20260502110025 55 16 6.1 8.7 0.00 0.00 0.00 53 1015.4
20260502105025 56 18 6.1 8.7 0.00 0.00 0.00 53 1015.4
20260502104024 56 22 6.1 12.2 0.00 0.00 0.00 54 1015.4
20260502103105 55 36 3.5 8.7 0.00 0.00 0.00 54 1015.4
20260502102025 55 23 4.3 7.0 0.00 0.00 0.00 51 1015.4
20260502101044 55 25 5.2 7.8 0.00 0.00 0.00 55 1015.4
20260502091025 51 360 6.1 7.8 0.00 0.00 0.00 62 1015.4